Cut Bank, MT

8:05 PM MST on November 16, 2019 (GMT -0700)
Cut Bank Municipal

Weather History for KCTB - July, 2019

Change the Weather History Date:

Wednesday, July 31, 2019

  Actual Average Record
Temperature  
Mean Temperature 70 °F 66 °F  
Max Temperature 88 °F 82 °F 99 °F (1929)
Min Temperature 52 °F 51 °F 34 °F (1968)
Degree Days  
Heating Degree Days 0 2  
Month to date heating degree days 93 88  
Since 1 June heating degree days 315 319  
Since 1 July heating degree days 93 86  
Cooling Degree Days 5 3  
Month to date cooling degree days 48 72  
Year to date cooling degree days 53 89  
Since 1 June cooling degree days 53 87  
Growing Degree Days 20 (Base 50)    
Moisture  
Dew Point 45 °F    
Average Humidity 47    
Maximum Humidity 89    
Minimum Humidity 18    
Precipitation  
Precipitation 0.00 in 0.04 in 1.45 in (1931)
Month to date precipitation 0.86 1.28  
Year to date precipitation 7.41 7.47  
Snow  
Snow - - - ()
Snow Depth 0.00 in    
Sea Level Pressure  
Sea Level Pressure 29.93 in    
Wind  
Wind Speed 7 mph ()    
Max Wind Speed 16 mph    
Max Gust Speed 20 mph    
Visibility 9.9 miles    
Events      
T = Trace of Precipitation, MM = Missing Value Source: Averaged Metar Reports

Daily Weather History Graph

Daily Weather History Graph

Search for Another Location

Airport or City:

Astronomy

Jul. 31, 2019 Rise Set
Actual Time 6:02 AM MDT 9:08 PM MDT
Civil Twilight 5:24 AM MDT 9:45 PM MDT
Nautical Twilight 4:36 AM MDT 10:34 PM MDT
Astronomical Twilight 3:35 AM MDT 11:34 PM MDT
Moon 5:14 AM MDT (7/31) 9:14 PM MDT (7/31)
Length of Visible Light 16h 20m
Length of Day
15h 06m
Waning Crescent, 0% of the Moon is Illuminated
Jul 31
Waning Crescent
Jul 31
New
Aug 7
First Quarter
Aug 15
Full
Aug 23
Last Quarter

Hourly Weather History & Observations

Time (MDT) Temp. Dew Point Humidity Pressure Visibility Wind Dir Wind Speed Gust Speed Precip Events Conditions
12:56 AM 60.1 °F 39.0 °F 46% 29.89 in 10.0 mi NNW 11.5 mph - N/A   Clear
1:56 AM 59.0 °F 51.1 °F 75% 29.90 in 10.0 mi NNW 13.8 mph - N/A   Clear
2:56 AM 57.0 °F 52.0 °F 83% 29.92 in 10.0 mi NW 10.4 mph - N/A   Clear
3:56 AM 55.0 °F 51.1 °F 86% 29.94 in 10.0 mi WNW 5.8 mph - N/A   Clear
4:56 AM 54.0 °F 50.0 °F 86% 29.95 in 10.0 mi NNW 8.1 mph - N/A   Clear
5:56 AM 53.1 °F 48.9 °F 86% 29.96 in 9.0 mi NNW 11.5 mph - N/A   Clear
6:56 AM 53.1 °F 48.9 °F 86% 29.98 in 9.0 mi NNW 8.1 mph - N/A   Clear
7:56 AM 57.9 °F 51.1 °F 78% 29.98 in 10.0 mi NNW 10.4 mph - N/A   Clear
8:56 AM 64.0 °F 52.0 °F 65% 29.99 in 10.0 mi NNW 11.5 mph - N/A   Clear
9:56 AM 70.0 °F 52.0 °F 53% 29.99 in 10.0 mi North 8.1 mph - N/A   Clear
10:56 AM 75.0 °F 46.9 °F 37% 29.98 in 10.0 mi North 9.2 mph - N/A   Clear
11:56 AM 79.0 °F 42.1 °F 27% 29.98 in 10.0 mi Calm Calm - N/A   Clear
12:56 PM 81.0 °F 39.9 °F 23% 29.97 in 10.0 mi West 4.6 mph - N/A   Clear
1:56 PM 82.9 °F 39.9 °F 22% 29.95 in 10.0 mi Variable 3.5 mph - N/A   Clear
2:56 PM 86.0 °F 39.9 °F 20% 29.93 in 10.0 mi Variable 5.8 mph - N/A   Clear
3:56 PM 86.0 °F 39.9 °F 20% 29.93 in 10.0 mi Variable 6.9 mph - N/A   Clear
4:56 PM 87.1 °F 39.9 °F 19% 29.91 in 10.0 mi West 6.9 mph - N/A   Clear
5:56 PM 86.0 °F 42.1 °F 21% 29.91 in 10.0 mi Variable 3.5 mph - N/A   Clear
6:56 PM 86.0 °F 42.1 °F 21% 29.89 in 10.0 mi SSE 8.1 mph - N/A   Clear
7:56 PM 84.9 °F 42.1 °F 22% 29.88 in 10.0 mi SSE 6.9 mph - N/A   Clear
8:56 PM 78.1 °F 45.0 °F 31% 29.89 in 10.0 mi ESE 4.6 mph - N/A   Clear
9:56 PM 75.0 °F 44.1 °F 33% 29.90 in 10.0 mi SSE 5.8 mph - N/A   Clear
10:56 PM 70.0 °F 45.0 °F 41% 29.90 in 10.0 mi South 5.8 mph - N/A   Clear
11:56 PM 68.0 °F 45.0 °F 43% 29.90 in 10.0 mi SW 5.8 mph - N/A   Clear